TimeMDT,TemperatureF,Dew PointF,Humidity,Sea Level PressureIn,VisibilityMPH,Wind Direction,Wind SpeedMPH,Gust SpeedMPH,PrecipitationIn,Events,Conditions,WindDirDegrees,DateUTC
12:15 AM,53.6,17.6,24,30.13,10.0,NW,4.6,-,N/A,,Clear,310,2013-04-04 06:15:00
12:35 AM,50.0,15.8,26,30.13,10.0,WNW,6.9,-,N/A,,Clear,290,2013-04-04 06:35:00
12:55 AM,50.0,17.6,28,30.14,10.0,West,5.8,-,N/A,,Clear,280,2013-04-04 06:55:00
1:15 AM,50.0,17.6,28,30.15,10.0,North,4.6,-,N/A,,Clear,10,2013-04-04 07:15:00
1:35 AM,48.2,17.6,30,30.15,10.0,NNW,3.5,-,N/A,,Clear,330,2013-04-04 07:35:00
1:55 AM,48.2,17.6,30,30.15,10.0,North,5.8,-,N/A,,Clear,350,2013-04-04 07:55:00
2:15 AM,48.2,19.4,32,30.15,10.0,NNW,4.6,-,N/A,,Clear,340,2013-04-04 08:15:00
2:35 AM,46.4,19.4,34,30.15,10.0,North,6.9,-,N/A,,Clear,10,2013-04-04 08:35:00
2:55 AM,48.2,21.2,34,30.15,10.0,North,6.9,-,N/A,,Clear,360,2013-04-04 08:55:00
3:15 AM,46.4,19.4,34,30.15,10.0,North,5.8,-,N/A,,Clear,10,2013-04-04 09:15:00
3:35 AM,46.4,19.4,34,30.15,10.0,North,10.4,-,N/A,,Clear,10,2013-04-04 09:35:00
3:55 AM,48.2,23.0,37,30.15,10.0,North,10.4,-,N/A,,Clear,360,2013-04-04 09:55:00
4:15 AM,48.2,19.4,32,30.15,10.0,North,11.5,-,N/A,,Clear,360,2013-04-04 10:15:00
4:35 AM,46.4,19.4,34,30.16,10.0,NNW,9.2,-,N/A,,Clear,340,2013-04-04 10:35:00
4:55 AM,46.4,19.4,34,30.16,10.0,NNW,6.9,-,N/A,,Clear,340,2013-04-04 10:55:00
5:15 AM,46.4,17.6,32,30.17,10.0,NNW,6.9,-,N/A,,Clear,340,2013-04-04 11:15:00
5:35 AM,44.6,17.6,34,30.18,10.0,North,5.8,-,N/A,,Clear,350,2013-04-04 11:35:00
5:55 AM,41.0,17.6,39,30.18,10.0,North,6.9,-,N/A,,Clear,360,2013-04-04 11:55:00
6:15 AM,44.6,19.4,37,30.19,10.0,North,5.8,-,N/A,,Clear,350,2013-04-04 12:15:00
6:35 AM,42.8,17.6,36,30.19,10.0,North,3.5,-,N/A,,Clear,360,2013-04-04 12:35:00
6:55 AM,42.8,19.4,39,30.20,10.0,Calm,Calm,-,N/A,,Clear,0,2013-04-04 12:55:00
7:15 AM,37.4,17.6,45,30.21,10.0,Calm,Calm,-,N/A,,Clear,0,2013-04-04 13:15:00
7:35 AM,39.2,17.6,42,30.22,10.0,NE,3.5,-,N/A,,Clear,50,2013-04-04 13:35:00
7:55 AM,44.6,19.4,37,30.23,10.0,NE,3.5,-,N/A,,Clear,50,2013-04-04 13:55:00
8:15 AM,50.0,23.0,35,30.23,10.0,Calm,Calm,-,N/A,,Clear,0,2013-04-04 14:15:00
8:35 AM,55.4,23.0,29,30.24,10.0,NNW,3.5,-,N/A,,Clear,340,2013-04-04 14:35:00
8:55 AM,55.4,24.8,31,30.24,10.0,NW,3.5,-,N/A,,Clear,310,2013-04-04 14:55:00
9:15 AM,59.0,24.8,27,30.24,10.0,WNW,5.8,-,N/A,,Clear,290,2013-04-04 15:15:00
9:35 AM,60.8,24.8,25,30.24,10.0,West,4.6,-,N/A,,Clear,270,2013-04-04 15:35:00
9:55 AM,62.6,26.6,26,30.24,10.0,West,4.6,-,N/A,,Clear,280,2013-04-04 15:55:00
10:35 AM,64.4,24.8,22,30.24,10.0,SW,3.5,-,N/A,,Clear,220,2013-04-04 16:35:00
10:55 AM,66.2,26.6,23,30.24,10.0,WNW,3.5,-,N/A,,Clear,300,2013-04-04 16:55:00
11:15 AM,66.2,24.8,21,30.23,10.0,Calm,Calm,-,N/A,,Clear,0,2013-04-04 17:15:00
11:35 AM,68.0,24.8,20,30.22,10.0,NW,6.9,-,N/A,,Clear,310,2013-04-04 17:35:00
12:15 PM,71.6,23.0,16,30.21,10.0,West,10.4,16.1,N/A,,Clear,280,2013-04-04 18:15:00
12:35 PM,71.6,23.0,16,30.20,10.0,WNW,12.7,19.6,N/A,,Clear,290,2013-04-04 18:35:00
12:55 PM,73.4,19.4,13,30.19,10.0,WNW,10.4,18.4,N/A,,Clear,300,2013-04-04 18:55:00
1:15 PM,73.4,17.6,12,30.19,10.0,West,9.2,20.7,N/A,,Clear,270,2013-04-04 19:15:00
1:35 PM,73.4,15.8,11,30.18,10.0,WSW,6.9,-,N/A,,Clear,250,2013-04-04 19:35:00
1:55 PM,75.2,14.0,10,30.17,10.0,WNW,12.7,16.1,N/A,,Clear,300,2013-04-04 19:55:00
2:15 PM,73.4,14.0,10,30.16,10.0,WSW,4.6,-,N/A,,Clear,250,2013-04-04 20:15:00
2:35 PM,75.2,15.8,11,30.15,10.0,NW,9.2,19.6,N/A,,Clear,320,2013-04-04 20:35:00
2:55 PM,75.2,14.0,10,30.14,10.0,NW,6.9,-,N/A,,Clear,320,2013-04-04 20:55:00
3:15 PM,77.0,14.0,9,30.13,10.0,NNW,9.2,-,N/A,,Clear,340,2013-04-04 21:15:00
3:35 PM,75.2,14.0,10,30.12,10.0,WNW,13.8,17.3,N/A,,Clear,290,2013-04-04 21:35:00
3:55 PM,77.0,14.0,9,30.12,10.0,WSW,8.1,17.3,N/A,,Clear,250,2013-04-04 21:55:00
4:15 PM,75.2,14.0,10,30.11,10.0,NW,9.2,-,N/A,,Clear,310,2013-04-04 22:15:00
4:35 PM,75.2,15.8,11,30.11,10.0,West,3.5,-,N/A,,Clear,260,2013-04-04 22:35:00
4:55 PM,75.2,14.0,10,30.10,10.0,WSW,6.9,-,N/A,,Clear,250,2013-04-04 22:55:00
5:15 PM,75.2,14.0,10,30.10,10.0,SSW,5.8,-,N/A,,Clear,210,2013-04-04 23:15:00
5:35 PM,75.2,10.4,8,30.10,10.0,NNE,5.8,-,N/A,,Clear,20,2013-04-04 23:35:00
5:55 PM,77.0,12.2,9,30.09,10.0,Calm,Calm,-,N/A,,Clear,0,2013-04-04 23:55:00
6:15 PM,75.2,12.2,9,30.10,10.0,SSW,3.5,-,N/A,,Clear,200,2013-04-05 00:15:00
6:35 PM,73.4,12.2,10,30.10,10.0,Calm,Calm,-,N/A,,Clear,0,2013-04-05 00:35:00
6:55 PM,71.6,14.0,11,30.10,10.0,SSE,4.6,-,N/A,,Clear,160,2013-04-05 00:55:00
7:15 PM,69.8,14.0,12,30.10,10.0,South,4.6,-,N/A,,Clear,180,2013-04-05 01:15:00
7:35 PM,64.4,14.0,14,30.10,10.0,SE,6.9,-,N/A,,Clear,140,2013-04-05 01:35:00
7:55 PM,64.4,10.4,12,30.10,10.0,SE,6.9,-,N/A,,Clear,130,2013-04-05 01:55:00
8:15 PM,62.6,10.4,13,30.10,10.0,SE,6.9,-,N/A,,Clear,130,2013-04-05 02:15:00
8:35 PM,62.6,10.4,13,30.10,10.0,ESE,3.5,-,N/A,,Clear,120,2013-04-05 02:35:00
8:55 PM,59.0,10.4,15,30.11,10.0,SE,5.8,-,N/A,,Clear,130,2013-04-05 02:55:00
9:15 PM,59.0,10.4,15,30.12,10.0,SE,8.1,-,N/A,,Clear,140,2013-04-05 03:15:00
9:35 PM,59.0,10.4,15,30.12,10.0,SE,10.4,-,N/A,,Clear,140,2013-04-05 03:35:00
9:55 PM,59.0,14.0,17,30.13,10.0,SE,9.2,-,N/A,,Clear,140,2013-04-05 03:55:00
10:15 PM,59.0,14.0,17,30.13,10.0,SSE,6.9,-,N/A,,Clear,150,2013-04-05 04:15:00
10:35 PM,60.8,10.4,14,30.13,10.0,SE,8.1,-,N/A,,Clear,140,2013-04-05 04:35:00
10:55 PM,59.0,10.4,15,30.14,10.0,SE,9.2,-,N/A,,Clear,140,2013-04-05 04:55:00
11:15 PM,59.0,14.0,17,30.13,10.0,SE,9.2,-,N/A,,Clear,140,2013-04-05 05:15:00
11:35 PM,59.0,10.4,15,30.13,10.0,SSE,8.1,-,N/A,,Clear,150,2013-04-05 05:35:00
11:55 PM,57.2,10.4,16,30.13,10.0,ESE,8.1,-,N/A,,Clear,120,2013-04-05 05:55:00